This is the latest recevied weather packets stored in our database for station/object DG9MHV-10. If no packets are shown the sender has not sent any weather packets the latest 10 day(s).
| Time | Temp. | Humidity | Pressure | Rain* | Wind** | Luminosity | Snow |
|---|---|---|---|---|---|---|---|
| 1778207165 | 5.56° C | 100% | 1028.8 hPa | - | - | - | - |
| 1778206265 | 5.56° C | 100% | 1028 hPa | - | - | - | - |
| 1778205365 | 6.11° C | 100% | 1027.4 hPa | - | - | - | - |
| 1778204468 | 6.11° C | 100% | 1026.6 hPa | - | - | - | - |
| 1778203565 | 6.11° C | 100% | 1026.2 hPa | - | - | - | - |
| 1778202665 | 6.67° C | 100% | 1025.7 hPa | - | - | - | - |
| 1778201765 | 6.67° C | 100% | 1025.4 hPa | - | - | - | - |
| 1778200865 | 6.67° C | 100% | 1025 hPa | - | - | - | - |
| 1778199965 | 7.22° C | 100% | 1024.4 hPa | - | - | - | - |
| 1778199065 | 7.78° C | 100% | 1024.1 hPa | - | - | - | - |
| 1778198165 | 7.78° C | 100% | 1023.6 hPa | - | - | - | - |
| 1778197265 | 7.22° C | 100% | 1022.8 hPa | - | - | - | - |
| 1778196365 | 7.22° C | 100% | 1021.8 hPa | - | - | - | - |
| 1778195464 | 7.22° C | 100% | 1021 hPa | - | - | - | - |
| 1778194564 | 7.22° C | 100% | 1019 hPa | - | - | - | - |
| 1778193664 | 7.78° C | 100% | 1016.7 hPa | - | - | - | - |
| 1778192764 | 7.78° C | 100% | 1014.4 hPa | - | - | - | - |
| 1778191864 | 8.89° C | 100% | 1013.2 hPa | - | - | - | - |
| 1778190964 | 9.44° C | 100% | 1013.1 hPa | - | - | - | - |
| 1778190064 | 10° C | 100% | 1012.9 hPa | - | - | - | - |
| 1778189164 | 10° C | 100% | 1013.1 hPa | - | - | - | - |
| 1778188264 | 10° C | 100% | 1013.3 hPa | - | - | - | - |
| 1778187364 | 10° C | 100% | 1013.5 hPa | - | - | - | - |
| 1778186464 | 10° C | 100% | 1013.4 hPa | - | - | - | - |
| 1778185564 | 10° C | 100% | 1013.3 hPa | - | - | - | - |
* Rain since midnight (hover to see other rain measurements)
** Current wind speed in m/s (hover to see current wind gust speed)